| time (UTC) | temp F | wind direction | speed knots | gust knots | rain 1hr in | rain 24hr in | rain mn in | humidity % | barometer mb |
| 20260505040316 | 71 | 170 | 2.6 | 8.7 | 0.00 | 0.00 | 0.00 | 79 | |
| 20260505034812 | 72 | 138 | 0.9 | 4.3 | 0.00 | 0.00 | 0.00 | 78 | |
| 20260505033314 | 73 | 200 | 3.5 | 8.7 | 0.00 | 0.00 | 0.00 | 74 | |
| 20260505031813 | 73 | 159 | 1.7 | 6.1 | 0.00 | 0.00 | 0.00 | 75 | |
| 20260505030311 | 72 | 153 | 3.5 | 7.0 | 0.00 | 0.00 | 0.00 | 74 | |
| 20260505024813 | 73 | 165 | 4.3 | 9.6 | 0.00 | 0.00 | 0.00 | 71 | |
| 20260505023329 | 73 | 149 | 1.7 | 7.8 | 0.00 | 0.00 | 0.00 | 70 | |
| 20260505021829 | 74 | 142 | 2.6 | 4.3 | 0.00 | 0.00 | 0.00 | 76 | |
| 20260505020327 | 73 | 155 | 0.9 | 4.3 | 0.00 | 0.00 | 0.00 | 78 | |
| 20260505014825 | 72 | 156 | 0.9 | 1.7 | 0.00 | 0.00 | 0.00 | 79 | |
| 20260505013325 | 73 | 153 | 0.0 | 0.0 | 0.00 | 0.00 | 0.00 | 78 | |
| 20260505011822 | 74 | 139 | 1.7 | 6.1 | 0.00 | 0.00 | 0.00 | 73 | |
| 20260505010319 | 75 | 148 | 1.7 | 2.6 | 0.00 | 0.00 | 0.00 | 73 | |
| 20260505004819 | 73 | 143 | 0.9 | 3.5 | 0.00 | 0.00 | 0.00 | 72 | |
| 20260505003318 | 72 | 171 | 1.7 | 2.6 | 0.00 | 0.00 | 0.00 | 78 | |
| 20260505001838 | 70 | 184 | 0.9 | 2.6 | 0.00 | 0.00 | 0.00 | 87 | |
| 20260505000315 | 68 | 328 | 0.0 | 0.0 | 0.00 | 0.00 | 0.00 | 91 | 1023.4 |
| 20260504234813 | 68 | 328 | 0.0 | 0.0 | 0.00 | 0.04 | 0.00 | 93 | 1023.4 |
| 20260504233313 | 66 | 328 | 0.9 | 1.7 | 0.00 | 0.04 | 0.00 | 94 | 1023.4 |
| 20260504231830 | 66 | 328 | 0.0 | 0.0 | 0.00 | 0.04 | 0.00 | 94 | 1023.4 |
| 20260504230326 | 65 | 328 | 0.0 | 0.0 | 0.00 | 0.04 | 0.00 | 94 | |
| 20260504224827 | 64 | 328 | 0.0 | 0.0 | 0.00 | 0.04 | 0.00 | 94 | |
| 20260504223325 | 64 | 328 | 0.0 | 0.0 | 0.00 | 0.04 | 0.00 | 94 | |
| 20260504221828 | 64 | 328 | 0.0 | 0.0 | 0.00 | 0.04 | 0.00 | 94 | |
| 20260504220324 | 63 | 328 | 0.0 | 0.0 | 0.00 | 0.04 | 0.00 | 94 | |
| 20260504214821 | 62 | 328 | 0.0 | 0.0 | 0.00 | 0.28 | 0.00 | 94 | |
| 20260504213342 | 62 | 328 | 0.0 | 0.0 | 0.00 | 0.28 | 0.00 | 94 | |
| 20260504211818 | 61 | 328 | 0.0 | 0.0 | 0.00 | 0.28 | 0.00 | 94 | |
| 20260504210320 | 61 | 328 | 0.0 | 0.0 | 0.00 | 0.28 | 0.00 | 94 | |
| 20260504204816 | 61 | 328 | 0.0 | 0.0 | 0.00 | 0.43 | 0.00 | 94 | |
| 20260504203314 | 61 | 328 | 0.0 | 0.0 | 0.00 | 0.43 | 0.00 | 93 | |
| 20260504201817 | 61 | 328 | 0.0 | 0.0 | 0.00 | 0.43 | 0.00 | 93 | 176.6 |
| 20260504200312 | 61 | 328 | 0.0 | 0.0 | 0.00 | 0.43 | 0.00 | 93 | |
| 20260504194829 | 61 | 328 | 0.0 | 0.0 | 0.00 | 0.47 | 0.00 | 93 | |
| 20260504193310 | 61 | 328 | 0.0 | 0.0 | 0.00 | 0.47 | 0.00 | 93 | |
| 20260504191826 | 61 | 328 | 0.0 | 0.0 | 0.00 | 0.47 | 0.00 | 93 | |
| 20260504190328 | 61 | 328 | 0.0 | 1.7 | 0.00 | 0.47 | 0.00 | 93 | |
| 20260504184845 | 61 | 311 | 0.9 | 0.9 | 0.00 | 0.47 | 0.00 | 93 | |
| 20260504183322 | 62 | 310 | 0.0 | 3.5 | 0.00 | 0.47 | 0.00 | 93 | |
| 20260504181823 | 61 | 333 | 0.9 | 1.7 | 0.00 | 0.47 | 0.00 | 93 | |
| 20260504180318 | 61 | 333 | 0.0 | 1.7 | 0.00 | 0.47 | 0.00 | 93 | 708.8 |
| 20260504174816 | 61 | 333 | 0.0 | 0.0 | 0.00 | 0.47 | 0.00 | 93 | 708.8 |
| 20260504173315 | 62 | 333 | 0.0 | 0.0 | 0.00 | 0.47 | 0.00 | 93 | |
| 20260504171811 | 62 | 333 | 0.0 | 0.0 | 0.00 | 0.47 | 0.00 | 93 | |
| 20260504170334 | 62 | 333 | 0.0 | 0.0 | 0.00 | 0.47 | 0.00 | 93 | |
| 20260504160325 | 63 | 347 | 0.0 | 2.6 | 0.00 | 0.47 | 0.00 | 93 | |
| 20260504150323 | 63 | 251 | 0.0 | 1.7 | 0.00 | 0.47 | 0.00 | 93 | |
| 20260504140316 | 64 | 300 | 0.0 | 1.7 | 0.00 | 0.47 | 0.00 | 93 | 903.6 |
| 20260504130311 | 64 | 300 | 0.0 | 1.7 | 0.00 | 0.47 | 0.00 | 93 | |
| 20260504110322 | 64 | 298 | 0.0 | 1.7 | 0.00 | 0.47 | 0.09 | 92 | 608.4 |
| 20260504100314 | 63 | 298 | 0.0 | 0.0 | 0.00 | 0.47 | 0.09 | 92 | 719.1 |
| 20260504081823 | 65 | 298 | 0.0 | 0.0 | 0.00 | 0.51 | 0.09 | 90 | 719.5 |
| 20260504080339 | 65 | 298 | 0.0 | 0.0 | 0.00 | 0.51 | 0.09 | 90 | 720.6 |
| 20260504070310 | 67 | 294 | 0.0 | 0.0 | 0.00 | 0.51 | 0.09 | 88 | 728.4 |
| 20260504050316 | 73 | 304 | 0.9 | 1.7 | 0.00 | 1.57 | 0.09 | 79 | 1015.0 |